DF1NIF-13 Weather Reports


time (UTC)temp
C
wind
direction
speed
KPH
gust
KPH
rain 1hr
cm
rain 24hr
cm
rain mn
cm
humidity
%
barometer
mb
20260905000023 16 345 1.6 1.6 0.00 0.00 0.00 66 970.3
20260904235551 16 345 0.0 8.0 0.00 0.00 0.00 66 970.3
20260904235128 16 345 6.4 11.3 0.00 0.00 0.00 71 970.4
20260904234708 17 353 16.1 17.7 0.00 0.00 0.00 71 970.3
20260904234233 18 329 11.3 11.3 0.00 0.00 0.00 71 970.2
20260904233819 18 348 4.8 8.0 0.00 0.00 0.00 71 969.9
20260904233408 18 352 11.3 22.5 0.00 0.00 0.00 71 969.9
20260904232938 18 352 12.9 17.7 0.00 0.00 0.00 71 970.2
20260904232459 18 0 12.9 32.2 0.00 0.00 0.00 71 970.1
20260904232033 18 0 12.9 22.5 0.00 0.00 0.00 71 970.2
20260904231613 18 0 16.1 14.5 0.00 0.00 0.00 71 969.9
20260904231143 18 346 16.1 14.5 0.00 0.00 0.00 71 970.0
20260904230708 18 310 16.1 14.5 0.00 0.00 0.00 71 969.6
20260904230233 18 310 16.1 25.7 0.00 0.00 0.00 69 969.9
20260904225753 18 310 16.1 40.2 0.00 0.00 0.00 69 970.1
20260904225333 18 310 9.7 40.2 0.00 0.00 0.00 69 970.0
20260904224853 18 359 11.3 29.0 0.00 0.00 0.00 69 969.9
20260904224433 18 359 17.7 29.0 0.00 0.00 0.00 70 969.8
20260904223953 18 327 14.5 35.4 0.00 0.00 0.00 64 969.5
20260904223503 19 338 14.5 22.5 0.00 0.00 0.00 64 969.7
20260904223028 19 338 24.1 78.9 0.00 0.00 0.00 64 969.9
20260904222603 19 338 20.9 35.4 0.00 0.00 0.00 64 969.7
20260904222123 19 338 20.9 22.5 0.00 0.00 0.00 64 969.6
20260904221648 21 330 16.1 29.0 0.00 0.00 0.00 64 969.6
20260904221218 21 0 16.1 46.7 0.00 0.00 0.00 64 969.4
20260904220758 21 0 43.5 78.9 0.00 0.00 0.00 64 968.8
20260904220353 21 359 30.6 57.9 0.00 0.00 0.00 64 968.8
20260904215938 21 343 16.1 43.5 0.00 0.00 0.00 64 968.7
20260904215504 21 312 16.1 40.2 0.00 0.00 0.00 64 968.6
20260904215103 24 354 16.1 57.9 0.00 0.00 0.00 59 968.0
20260904214603 24 319 16.1 49.9 0.00 0.00 0.00 56 968.0
20260904214113 24 319 16.1 40.2 0.00 0.00 0.00 56 967.2
20260904213634 24 319 16.1 37.0 0.00 0.00 0.00 56 967.2
20260904213158 24 319 11.3 35.4 0.00 0.00 0.00 56 967.0
20260904212729 24 306 19.3 29.0 0.00 0.00 0.00 56 967.1
20260904212243 24 306 19.3 37.0 0.00 0.00 0.00 56 966.9
20260904211818 24 341 17.7 32.2 0.00 0.00 0.00 56 967.0
20260904211348 23 341 17.7 32.2 0.00 0.00 0.00 56 967.0
20260904210918 23 341 11.3 29.0 0.00 0.00 0.00 56 966.7
20260904210443 23 341 24.1 32.2 0.00 0.00 0.00 56 966.7
20260904205953 23 341 4.8 20.9 0.00 0.00 0.00 56 967.1
20260904205518 23 341 4.8 17.7 0.00 0.00 0.00 56 967.1
20260904205048 23 341 9.7 14.5 0.00 0.00 0.00 56 966.7
20260904204608 23 300 8.0 14.5 0.00 0.00 0.00 56 966.9
20260904204148 23 253 6.4 8.0 0.00 0.00 0.00 56 966.6
20260904203708 23 253 6.4 17.7 0.00 0.00 0.00 56 966.9
20260904203248 23 130 9.7 17.7 0.00 0.00 0.00 56 966.8
20260904202838 23 270 0.0 17.7 0.00 0.00 0.00 56 966.8
20260904202403 23 270 3.2 8.0 0.00 0.00 0.00 56 966.9
20260904201943 23 339 1.6 8.0 0.00 0.00 0.00 56 966.6
20260904201518 23 339 1.6 8.0 0.00 0.00 0.00 56 966.5
20260904201049 23 339 4.8 4.8 0.00 0.00 0.00 56 966.6
20260904200638 23 339 4.8 8.0 0.00 0.00 0.00 56 966.7
20260904200203 23 339 4.8 17.7 0.00 0.00 0.00 56 966.5
20260904195738 23 339 4.8 11.3 0.00 0.00 0.00 56 966.7
20260904195328 23 339 4.8 14.5 0.00 0.00 0.00 56 966.5
20260904194853 23 339 8.0 11.3 0.00 0.00 0.00 56 966.3
20260904194418 23 339 8.0 4.8 0.00 0.00 0.00 56 966.6
20260904193953 23 339 8.0 8.0 0.00 0.00 0.00 56 966.5
20260904193518 23 339 8.0 11.3 0.00 0.00 0.00 56 966.3
20260904193058 23 251 1.6 11.3 0.00 0.00 0.00 52 966.4
20260904192612 23 133 3.2 11.3 0.00 0.00 0.00 52 966.5
20260904192119 23 133 0.0 4.8 0.00 0.00 0.00 52 966.2
20260904191643 23 133 8.0 4.8 0.00 0.00 0.00 52 966.5
20260904191218 23 133 3.2 4.8 0.00 0.00 0.00 52 966.3
20260904190727 23 133 3.2 0.0 0.00 0.00 0.00 52 966.3
20260904190253 23 133 3.2 1.6 0.00 0.00 0.00 52 966.3
20260904185843 23 24 3.2 1.6 0.00 0.00 0.00 52 966.3
20260904185423 23 24 3.2 4.8 0.00 0.00 0.00 52 966.3
20260904184938 23 24 0.0 0.0 0.00 0.00 0.00 52 966.2
20260904184458 23 24 0.0 1.6 0.00 0.00 0.00 52 966.3
20260904184039 25 24 1.6 1.6 0.00 0.00 0.00 52 966.4
20260904183558 25 0 0.0 0.0 0.00 0.00 0.00 52 966.1
20260904183123 25 0 4.8 0.0 0.00 0.00 0.00 52 966.2
20260904182708 25 251 3.2 4.8 0.00 0.00 0.00 52 966.0
20260904182213 25 259 0.0 4.8 0.00 0.00 0.00 52 966.2
20260904181748 25 259 1.6 8.0 0.00 0.00 0.00 52 965.9
20260904181313 25 259 3.2 4.8 0.00 0.00 0.00 52 966.0
20260904180843 25 259 3.2 4.8 0.00 0.00 0.00 52 965.8
20260904180413 25 259 3.2 14.5 0.00 0.00 0.00 52 965.9
20260904175943 25 259 0.0 4.8 0.00 0.00 0.00 52 966.0
20260904175502 26 290 1.6 1.6 0.00 0.00 0.00 52 965.8
20260904175038 26 290 1.6 4.8 0.00 0.00 0.00 49 965.8
20260904174558 26 290 6.4 11.3 0.00 0.00 0.00 49 965.8
20260904174118 26 290 8.0 11.3 0.00 0.00 0.00 49 965.6
20260904173653 26 290 0.0 11.3 0.00 0.00 0.00 49 965.9
20260904173233 26 290 0.0 8.0 0.00 0.00 0.00 49 965.8
20260904172813 26 166 8.0 20.9 0.00 0.00 0.00 49 966.0
20260904172333 26 166 6.4 20.9 0.00 0.00 0.00 49 965.9
20260904171908 26 166 6.4 14.5 0.00 0.00 0.00 49 965.8
20260904171443 26 253 4.8 17.7 0.00 0.00 0.00 45 966.0
20260904171028 26 253 4.8 17.7 0.00 0.00 0.00 45 966.1
20260904170553 26 274 4.8 29.0 0.00 0.00 0.00 45 965.9
20260904170108 26 337 11.3 11.3 0.00 0.00 0.00 45 966.1
20260904165639 26 334 1.6 11.3 0.00 0.00 0.00 45 966.2
20260904165158 26 257 3.2 14.5 0.00 0.00 0.00 45 966.0
20260904164723 26 257 11.3 14.5 0.00 0.00 0.00 45 966.1
20260904164253 26 301 11.3 11.3 0.00 0.00 0.00 45 966.4
20260904163809 26 301 8.0 22.5 0.00 0.00 0.00 45 966.3
20260904163327 26 301 8.0 14.5 0.00 0.00 0.00 45 966.2
20260904162838 26 301 3.2 22.5 0.00 0.00 0.00 45 966.2
20260904162353 26 301 3.2 22.5 0.00 0.00 0.00 45 966.3
20260904161928 27 292 3.2 32.2 0.00 0.00 0.00 45 966.4
20260904161453 27 333 3.2 22.5 0.00 0.00 0.00 45 965.9
20260904161038 27 333 6.4 22.5 0.00 0.00 0.00 45 966.3
20260904160543 27 137 6.4 14.5 0.00 0.00 0.00 45 966.1
20260904160113 27 117 6.4 25.7 0.00 0.00 0.00 45 966.1
20260904155633 27 117 29.0 40.2 0.00 0.00 0.00 45 966.1
20260904155158 27 316 12.9 20.9 0.00 0.00 0.00 45 966.1
20260904154711 27 350 9.7 14.5 0.00 0.00 0.00 43 966.1
20260904154228 27 292 9.7 35.4 0.00 0.00 0.00 43 965.9
20260904153813 27 281 6.4 22.5 0.00 0.00 0.00 43 966.0
20260904153323 27 281 20.9 35.4 0.00 0.00 0.00 44 965.9
20260904152824 27 84 12.9 35.4 0.00 0.00 0.00 44 966.0
20260904152418 27 84 19.3 17.7 0.00 0.00 0.00 44 966.1
20260904151953 27 7 17.7 20.9 0.00 0.00 0.00 44 965.8
20260904151513 27 337 11.3 40.2 0.00 0.00 0.00 44 965.7
20260904151103 27 161 17.7 25.7 0.00 0.00 0.00 44 966.1
20260904150633 27 351 11.3 25.7 0.00 0.00 0.00 44 966.0
20260904150218 28 241 12.9 20.9 0.00 0.00 0.00 44 966.0
20260904145738 27 241 11.3 14.5 0.00 0.00 0.00 44 966.1
20260904145309 27 2 11.3 43.5 0.00 0.00 0.00 44 965.9
20260904144843 27 186 4.8 17.7 0.00 0.00 0.00 44 966.0
20260904144411 27 103 12.9 32.2 0.00 0.00 0.00 44 966.2
20260904143928 27 56 22.5 11.3 0.00 0.00 0.00 44 966.2
20260904143448 27 314 14.5 11.3 0.00 0.00 0.00 44 966.2
20260904142958 27 326 8.0 11.3 0.00 0.00 0.00 44 966.3
20260904142528 27 326 6.4 40.2 0.00 0.00 0.00 44 966.5
20260904142113 27 313 8.0 35.4 0.00 0.00 0.00 44 966.5
20260904141648 27 139 8.0 40.2 0.00 0.00 0.00 44 966.5
20260904141208 27 139 1.6 22.5 0.00 0.00 0.00 45 966.6
20260904140738 27 304 25.7 14.5 0.00 0.00 0.00 49 966.7
20260904140313 27 182 25.7 25.7 0.00 0.00 0.00 49 966.7
20260904135828 27 302 25.7 25.7 0.00 0.00 0.00 49 966.9
20260904135353 27 68 6.4 14.5 0.00 0.00 0.00 49 967.0
20260904134933 27 187 1.6 14.5 0.00 0.00 0.00 49 966.9
20260904134508 26 238 9.7 53.1 0.00 0.00 0.00 49 966.9
20260904134108 26 238 16.1 53.1 0.00 0.00 0.00 49 967.2
20260904133623 26 175 16.1 29.0 0.00 0.00 0.00 49 967.1
20260904133203 26 305 8.0 29.0 0.00 0.00 0.00 47 967.0
20260904132733 26 105 11.3 29.0 0.00 0.00 0.00 47 967.1
20260904132258 27 340 8.0 25.7 0.00 0.00 0.00 48 967.1
20260904131759 27 182 11.3 22.5 0.00 0.00 0.00 47 967.2
20260904131333 26 332 11.3 32.2 0.00 0.00 0.00 47 967.2
20260904130853 26 303 6.4 32.2 0.00 0.00 0.00 47 967.1
20260904130443 26 231 8.0 22.5 0.00 0.00 0.00 47 967.2
20260904130028 26 234 14.5 40.2 0.00 0.00 0.00 48 967.4
20260904125608 26 291 22.5 25.7 0.00 0.00 0.00 49 967.4
20260904125133 26 344 22.5 43.5 0.00 0.00 0.00 50 967.5
20260904124639 26 308 22.5 35.4 0.00 0.00 0.00 50 967.7
20260904124218 26 319 11.3 22.5 0.00 0.00 0.00 50 967.6
20260904123743 26 110 11.3 35.4 0.00 0.00 0.00 50 968.0
20260904123318 25 110 17.7 46.7 0.00 0.00 0.00 50 968.1
20260904122858 25 318 17.7 25.7 0.00 0.00 0.00 50 968.2
20260904122428 26 322 17.7 32.2 0.00 0.00 0.00 50 968.5
20260904121953 25 317 6.4 8.0 0.00 0.00 0.00 50 968.3
20260904121525 25 331 6.4 29.0 0.00 0.00 0.00 50 968.5
20260904121118 25 331 6.4 25.7 0.00 0.00 0.00 52 968.5
20260904120638 25 304 9.7 8.0 0.00 0.00 0.00 52 968.5
20260904120148 25 125 9.7 40.2 0.00 0.00 0.00 52 968.7
20260904115728 25 125 9.7 32.2 0.00 0.00 0.00 55 968.6
20260904115308 25 257 14.5 37.0 0.00 0.00 0.00 55 968.6
20260904114903 25 257 11.3 20.9 0.00 0.00 0.00 55 968.6
20260904114413 25 257 16.1 22.5 0.00 0.00 0.00 55 968.9
20260904113958 25 257 14.5 49.9 0.00 0.00 0.00 55 968.8
20260904113533 24 283 14.5 14.5 0.00 0.00 0.00 55 968.9
20260904113038 24 251 14.5 35.4 0.00 0.00 0.00 55 968.9
20260904112619 24 288 22.5 49.9 0.00 0.00 0.00 58 968.8
20260904112158 24 327 8.0 22.5 0.00 0.00 0.00 58 968.9
20260904111718 25 343 8.0 32.2 0.00 0.00 0.00 58 968.9
20260904111243 24 343 8.0 4.8 0.00 0.00 0.00 58 969.0
20260904110758 24 343 14.5 20.9 0.00 0.00 0.00 58 969.2
20260904110333 24 178 14.5 14.5 0.00 0.00 0.00 58 969.2
20260904105848 23 95 8.0 25.7 0.00 0.00 0.00 58 969.2
20260904105413 23 111 22.5 17.7 0.00 0.00 0.00 58 969.1
20260904104933 24 111 4.8 17.7 0.00 0.00 0.00 58 969.2
20260904104518 24 127 14.5 40.2 0.00 0.00 0.00 58 969.3
20260904104033 24 197 14.5 17.7 0.00 0.00 0.00 58 969.3
20260904103628 24 146 14.5 22.5 0.00 0.00 0.00 62 969.1
20260904103153 23 146 4.8 17.7 0.00 0.00 0.00 62 969.2
20260904102728 23 343 4.8 22.5 0.00 0.00 0.00 62 969.6
20260904102253 23 343 8.0 29.0 0.00 0.00 0.00 62 969.6
20260904101823 23 337 16.1 22.5 0.00 0.00 0.00 62 969.5
20260904101343 23 156 11.3 35.4 0.00 0.00 0.00 63 969.7
20260904100923 22 137 8.0 35.4 0.00 0.00 0.00 63 969.8
20260904100458 22 175 9.7 29.0 0.00 0.00 0.00 66 969.8
20260904100028 22 315 8.0 32.2 0.00 0.00 0.00 66 970.1
20260904095548 22 308 11.3 22.5 0.00 0.00 0.00 66 970.1
20260904095113 22 308 16.1 25.7 0.00 0.00 0.00 67 970.1
20260904094643 22 330 9.7 35.4 0.00 0.00 0.00 67 970.2
20260904094208 23 330 6.4 14.5 0.00 0.00 0.00 67 970.0
20260904093733 21 330 6.4 20.9 0.00 0.00 0.00 67 970.5
20260904093303 21 39 14.5 37.0 0.00 0.00 0.00 67 970.3
20260904092838 21 292 14.5 32.2 0.00 0.00 0.00 67 970.5
20260904092353 22 292 14.5 32.2 0.00 0.00 0.00 67 970.5
20260904091933 22 292 8.0 35.4 0.00 0.00 0.00 69 970.5
20260904091523 20 147 8.0 22.5 0.00 0.00 0.00 69 970.6
20260904091103 20 318 3.2 29.0 0.00 0.00 0.00 69 970.8
20260904090633 20 351 14.5 17.7 0.00 0.00 0.00 75 970.8
20260904090208 20 10 14.5 25.7 0.00 0.00 0.00 75 970.7
20260904085713 20 249 6.4 14.5 0.00 0.00 0.00 75 970.8
20260904085308 20 161 3.2 14.5 0.00 0.00 0.00 75 970.7
20260904084843 20 161 8.0 14.5 0.00 0.00 0.00 75 970.9
20260904084358 20 198 4.8 4.8 0.00 0.00 0.00 75 970.9
20260904083948 20 143 3.2 22.5 0.00 0.00 0.00 75 971.1
20260904083528 20 175 3.2 8.0 0.00 0.00 0.00 75 971.0
20260904083058 19 175 3.2 11.3 0.00 0.00 0.00 75 971.0
20260904082613 19 138 3.2 4.8 0.00 0.00 0.00 79 971.1
20260904082128 19 38 3.2 8.0 0.00 0.00 0.00 79 971.2
20260904081648 19 38 8.0 8.0 0.00 0.00 0.00 79 971.2
20260904081219 19 340 1.6 1.6 0.00 0.00 0.00 79 971.2
20260904080748 19 340 1.6 11.3 0.00 0.00 0.00 79 971.3
20260904080333 19 340 8.0 11.3 0.00 0.00 0.00 79 971.5
20260904075908 19 103 1.6 8.0 0.00 0.00 0.00 79 971.3
20260904075449 19 103 1.6 17.7 0.00 0.00 0.00 79 971.4
20260904075003 18 103 1.6 4.8 0.00 0.00 0.00 79 971.5
20260904074528 18 103 1.6 11.3 0.00 0.00 0.00 79 971.6
20260904074059 18 103 1.6 1.6 0.00 0.00 0.00 79 971.5
20260904073618 18 325 1.6 11.3 0.00 0.00 0.00 79 971.7
20260904073153 18 352 0.0 11.3 0.00 0.00 0.00 79 971.5
20260904072728 18 171 3.2 14.5 0.00 0.00 0.00 80 971.7
20260904072313 18 289 6.4 8.0 0.00 0.00 0.00 80 971.6
20260904071843 18 289 4.8 17.7 0.00 0.00 0.00 81 971.7
20260904071413 18 289 6.4 17.7 0.00 0.00 0.00 81 971.5
20260904070958 18 349 6.4 11.3 0.00 0.00 0.00 81 971.8
20260904070533 18 146 4.8 11.3 0.00 0.00 0.00 81 971.7
20260904070058 18 259 3.2 8.0 0.00 0.00 0.00 81 971.7
20260904065619 18 259 0.0 4.8 0.00 0.00 0.00 81 971.6
20260904065153 17 259 0.0 4.8 0.00 0.00 0.00 81 971.6
20260904064718 17 310 1.6 4.8 0.00 0.00 0.00 81 971.7
20260904064238 17 242 1.6 8.0 0.00 0.00 0.00 81 971.6
20260904063813 16 196 3.2 8.0 0.00 0.00 0.00 81 971.6
20260904063348 16 196 3.2 4.8 0.00 0.00 0.00 82 971.7
20260904062908 16 196 3.2 4.8 0.00 0.00 0.00 85 971.6
20260904062418 16 196 3.2 4.8 0.00 0.00 0.00 85 971.7
20260904061958 16 4 1.6 8.0 0.00 0.00 0.00 85 971.5
20260904061553 16 4 0.0 0.0 0.00 0.00 0.00 85 971.9
20260904061128 16 4 3.2 0.0 0.00 0.00 0.00 85 971.7
20260904060646 15 4 0.0 0.0 0.00 0.00 0.00 87 971.8
20260904060218 15 4 0.0 1.6 0.00 0.00 0.00 87 971.7
20260904055738 15 4 0.0 1.6 0.00 0.00 0.00 87 971.9
20260904055323 15 4 0.0 1.6 0.00 0.00 0.00 84 972.0
20260904054843 15 4 0.0 0.0 0.00 0.00 0.00 87 971.7
20260904054358 15 4 0.0 1.6 0.00 0.00 0.00 88 971.8
20260904053918 15 351 0.0 1.6 0.00 0.00 0.00 88 971.6
20260904053508 15 342 0.0 1.6 0.00 0.00 0.00 88 971.7
20260904053028 15 63 0.0 1.6 0.00 0.00 0.00 90 971.9
20260904052608 15 63 0.0 1.6 0.00 0.00 0.00 90 971.9
20260904052123 15 63 0.0 1.6 0.00 0.00 0.00 90 971.7
20260904051713 15 63 1.6 1.6 0.00 0.00 0.00 90 971.8
20260904051248 15 63 1.6 1.6 0.00 0.00 0.00 90 971.8
20260904050843 15 63 0.0 1.6 0.00 0.00 0.00 90 972.0
20260904050348 15 63 0.0 1.6 0.00 0.00 0.00 90 971.8
20260904045938 15 63 0.0 1.6 0.00 0.00 0.00 90 971.9
20260904045513 15 63 0.0 0.0 0.00 0.00 0.00 90 971.7
20260904045058 15 63 0.0 0.0 0.00 0.00 0.00 90 971.7
20260904044608 15 148 0.0 0.0 0.00 0.00 0.00 90 971.8
20260904044109 15 148 0.0 1.6 0.00 0.00 0.00 90 971.7
20260904043628 15 148 0.0 0.0 0.00 0.00 0.00 94 971.8
20260904043203 15 148 0.0 0.0 0.00 0.00 0.00 94 971.9
20260904042733 15 148 0.0 1.6 0.00 0.00 0.00 94 972.0
20260904042248 14 148 0.0 1.6 0.00 0.00 0.00 94 972.0
20260904041818 14 149 0.0 1.6 0.00 0.00 0.00 94 972.2
20260904041338 15 336 3.2 0.0 0.00 0.00 0.00 94 972.0
20260904040859 15 336 0.0 1.6 0.00 0.00 0.00 94 972.3
20260904040413 15 336 0.0 1.6 0.00 0.00 0.00 94 972.0
20260904035953 15 336 0.0 0.0 0.00 0.00 0.00 93 972.3
20260904035523 15 336 0.0 0.0 0.00 0.00 0.00 91 972.3
20260904035058 15 336 0.0 1.6 0.00 0.00 0.00 88 972.3
20260904034623 15 336 1.6 1.6 0.00 0.00 0.00 88 972.1
20260904034143 15 336 1.6 1.6 0.00 0.00 0.00 88 972.1
20260904033723 15 10 1.6 1.6 0.00 0.00 0.00 88 972.2
20260904033228 15 125 1.6 1.6 0.00 0.00 0.00 88 971.9
20260904032743 15 125 0.0 0.0 0.00 0.00 0.00 88 972.1
20260904032313 15 125 0.0 0.0 0.00 0.00 0.00 88 972.1
20260904031858 15 122 0.0 4.8 0.00 0.00 0.00 97 972.1
20260904031438 15 142 0.0 1.6 0.00 0.00 0.00 97 972.3
20260904031003 15 175 0.0 1.6 0.00 0.00 0.00 97 972.3
20260904030523 15 175 0.0 1.6 0.00 0.00 0.00 97 972.2
20260904030043 15 233 0.0 1.6 0.00 0.00 0.00 97 972.1
20260904025623 15 359 0.0 4.8 0.00 0.00 0.00 97 972.2
20260904025148 15 359 3.2 4.8 0.00 0.00 0.00 97 972.3
20260904024701 13 359 3.2 8.0 0.00 0.00 0.00 97 972.6
20260904024233 13 248 1.6 1.6 0.00 0.00 0.00 97 972.5
20260904023748 13 143 0.0 4.8 0.00 0.00 0.00 97 972.3
20260904023309 13 143 0.0 4.8 0.00 0.00 0.00 97 972.2
20260904022833 13 143 0.0 4.8 0.00 0.00 0.00 97 972.5
20260904022423 13 143 0.0 4.8 0.00 0.00 0.00 97 972.5
20260904021958 13 143 1.6 4.8 0.00 0.00 0.00 97 972.4
20260904021533 13 143 1.6 4.8 0.00 0.00 0.00 97 972.4
20260904021118 13 95 0.0 4.8 0.00 0.00 0.00 97 972.5
20260904020638 13 95 0.0 0.0 0.00 0.00 0.00 97 972.3
20260904020158 13 95 0.0 0.0 0.00 0.00 0.00 97 972.5
20260904015708 13 95 0.0 0.0 0.00 0.00 0.00 97 972.4
20260904015218 13 95 0.0 1.6 0.00 0.00 0.00 97 972.5
20260904014758 13 95 0.0 1.6 0.00 0.00 0.00 97 972.4
20260904014328 13 95 0.0 1.6 0.00 0.00 0.00 97 972.6
20260904013858 13 95 0.0 1.6 0.00 0.00 0.00 97 972.6
20260904013438 13 95 0.0 1.6 0.00 0.00 0.00 97 972.5
20260904013023 13 95 0.0 1.6 0.00 0.00 0.00 97 972.6
20260904012558 13 95 0.0 1.6 0.00 0.00 0.00 97 972.4
20260904012118 13 95 1.6 0.0 0.00 0.00 0.00 97 972.6
20260904011648 13 95 0.0 1.6 0.00 0.00 0.00 97 972.4
20260904011153 13 95 0.0 1.6 0.00 0.00 0.00 97 972.7
20260904010703 13 95 1.6 1.6 0.00 0.00 0.00 97 972.6
20260904010216 13 95 1.6 1.6 0.00 0.00 0.00 96 972.8
20260904005733 13 95 0.0 1.6 0.00 0.00 0.00 96 972.6
20260904005256 13 95 0.0 1.6 0.00 0.00 0.00 96 972.8
20260904004833 13 95 0.0 0.0 0.00 0.00 0.00 96 972.7
20260904004356 14 95 1.6 1.6 0.00 0.00 0.00 96 972.9
20260904003923 14 95 0.0 1.6 0.00 0.00 0.00 96 972.7
20260904003453 14 95 0.0 1.6 0.00 0.00 0.00 96 972.9
20260904003033 14 95 0.0 1.6 0.00 0.00 0.00 96 972.9
20260904002556 14 95 0.0 1.6 0.00 0.00 0.00 96 973.0
20260904002128 14 95 0.0 1.6 0.00 0.00 0.00 96 972.9
20260904001658 14 95 0.0 1.6 0.00 0.00 0.00 96 973.0
20260904001223 14 95 0.0 1.6 0.00 0.00 0.00 96 972.9
20260904000736 14 95 0.0 1.6 0.00 0.00 0.00 96 973.2